Location: Newark
(51.5114°N, 0.0848°W)
Time: 22:43:01
(UTC+00:00)

Envisat - Visible Passes

Search period start: 19 February 2019 00:00
Search period end: 01 March 2019 00:00
Orbit: 764 x 766 km, 98.2° (Epoch: 19 February)

Date Brightness Start Highest point End Pass type
(mag) Time Alt. Az. Time Alt. Az. Time Alt. Az.
19 Feb 3.2 17:52:21 10° SE 17:57:13 48° ENE 18:02:07 10° N visible
19 Feb 5.0 19:32:05 10° SSW 19:36:28 29° W 19:40:52 10° NNW visible
20 Feb 6.6 05:58:10 10° ENE 05:59:33 11° E 06:00:56 10° E visible
20 Feb 3.8 18:54:29 10° S 18:59:28 56° W 19:04:30 10° NNW visible
21 Feb 3.0 18:17:36 10° SSE 18:22:40 77° ENE 18:27:46 10° NNW visible
21 Feb 5.7 19:58:52 10° SW 20:02:18 18° W 20:05:45 10° NW visible
22 Feb 6.0 06:22:00 10° NE 06:25:29 18° E 06:28:57 10° SE visible
22 Feb 4.7 19:20:33 10° SSW 19:25:10 35° W 19:29:49 10° NNW visible
23 Feb 3.4 18:43:10 10° S 18:48:13 68° WSW 18:53:19 10° NNW visible
23 Feb 6.2 20:26:57 10° W 20:28:14 11° W 20:29:31 10° WNW visible
24 Feb 3.0 18:06:28 10° SSE 18:11:29 63° ENE 18:16:32 10° N visible
24 Feb 5.5 19:47:03 10° SW 19:50:57 22° W 19:54:52 10° NW visible
25 Feb 6.2 06:11:15 10° NE 06:14:07 15° E 06:16:59 10° ESE visible
25 Feb 4.3 19:09:04 10° SSW 19:13:52 42° W 19:18:43 10° NNW visible
26 Feb 3.1 18:31:54 10° SSE 18:36:59 82° WSW 18:42:07 10° NNW visible
26 Feb 6.0 20:14:20 10° WSW 20:16:51 14° W 20:19:22 10° NW visible
27 Feb 5.2 19:35:22 10° SSW 19:39:37 26° W 19:43:55 10° NW visible
28 Feb 6.5 06:00:47 10° ENE 06:02:44 12° E 06:04:41 10° ESE visible
28 Feb 3.9 18:57:40 10° S 19:02:36 51° W 19:07:35 10° NNW visible
